Weather History for KHGR - December, 2012

Change the Weather History Date:

Thursday, December 27, 2012

  Actual Average Record
Temperature  
Mean Temperature 35 °F 31 °F  
Max Temperature 36 °F 39 °F 58 °F (2014)
Min Temperature 33 °F 24 °F 18 °F (2000)
Degree Days  
Heating Degree Days 30 34  
Month to date heating degree days 645 825  
Since 1 July heating degree days 1675 1830  
Cooling Degree Days 0 0  
Month to date cooling degree days 0 0  
Year to date cooling degree days 1276 969  
Moisture  
Dew Point 27 °F    
Average Humidity 82    
Maximum Humidity 100    
Minimum Humidity 64    
Precipitation  
Precipitation 0.01 in 0.07 in 0.64 in (2011)
Month to date precipitation 2.53 2.60  
Year to date precipitation 37.61 39.00  
Sea Level Pressure  
Sea Level Pressure 29.76 in    
Wind  
Wind Speed 19 mph (NW)    
Max Wind Speed 33 mph    
Max Gust Speed 44 mph    
Visibility 9 miles    
Events Rain    
T = Trace of Precipitation, MM = Missing Value Source: NWS Daily Summary

Daily Weather History Graph

Daily Weather History Graph

Search for Another Location

Airport or City:

Trip Planner

Search our weather history database for the weather conditions in past years. The results will help you decide how hot, cold, wet, or windy it might be!

Date:

Astronomy

Dec. 27, 2012 Rise Set
Actual Time 7:30 AM EST 4:53 PM EST
Civil Twilight 7:00 AM EST 5:24 PM EST
Nautical Twilight 6:26 AM EST 5:57 PM EST
Astronomical Twilight 5:53 AM EST 6:30 PM EST
Moon 4:35 PM EST (12/27) 6:40 AM EST (12/27)
Length of Visible Light 10h 23m
Length of Day
9h 22m
Full, 100% of the Moon is Illuminated
Dec 27
Full
Dec 28
Full
Jan 4
Last Quarter
Jan 11
New
Jan 18
First Quarter

Hourly Weather History & Observations

Time (EST) Temp. Windchill Dew Point Humidity Pressure Visibility Wind Dir Wind Speed Gust Speed Precip Events Conditions
12:03 AM 33.8 °F 25.3 °F 33.8 °F 100% 29.49 in 5.0 mi NNW 11.5 mph - 0.00 in Rain Ice Pellets
12:19 AM 33.8 °F 24.3 °F 33.8 °F 100% 29.49 in 5.0 mi NNW 13.8 mph - 0.00 in Rain Ice Pellets
12:40 AM 33.8 °F 24.8 °F 32.0 °F 93% 29.48 in 2.5 mi NNW 12.7 mph - 0.01 in Rain Ice Pellets
12:53 AM 33.1 °F 24.4 °F 32.0 °F 96% 29.53 in 4.0 mi NNW 11.5 mph - 0.01 in Rain Ice Pellets
1:22 AM 33.8 °F 25.3 °F 32.0 °F 93% 29.49 in 4.0 mi NW 11.5 mph - 0.00 in Rain Ice Pellets
1:42 AM 33.8 °F 24.8 °F 30.2 °F 87% 29.49 in 7.0 mi NNW 12.7 mph - 0.00 in Rain Ice Pellets
1:53 AM 33.1 °F 24.9 °F 30.9 °F 92% 29.54 in 7.0 mi NW 10.4 mph - 0.00 in Rain Ice Pellets
2:53 AM 33.1 °F 23.4 °F 30.0 °F 89% 29.56 in 10.0 mi NW 13.8 mph - 0.00 in Rain Ice Pellets
3:53 AM 33.1 °F 23.0 °F 28.9 °F 85% 29.58 in 10.0 mi NW 15.0 mph - 0.00 in Rain Ice Pellets
4:53 AM 33.1 °F 23.0 °F 28.9 °F 85% 29.61 in 10.0 mi NW 15.0 mph - 0.00 in Rain Ice Pellets
5:36 AM 33.8 °F 25.3 °F 28.4 °F 81% 29.59 in 10.0 mi NW 11.5 mph - 0.00 in Rain Ice Pellets
5:53 AM 33.1 °F 20.3 °F 27.0 °F 78% 29.64 in 10.0 mi NW 24.2 mph 31.1 mph 0.00 in Rain Ice Pellets
6:53 AM 33.1 °F 22.6 °F 27.0 °F 78% 29.69 in 10.0 mi NW 16.1 mph - 0.00 in Rain Ice Pellets
8:53 AM 34.0 °F 22.4 °F 27.0 °F 75% 29.74 in 10.0 mi WNW 20.7 mph 32.2 mph N/A   Overcast
9:53 AM 34.0 °F 21.5 °F 26.1 °F 73% 29.78 in 10.0 mi WNW 24.2 mph 32.2 mph N/A   Overcast
10:16 AM 33.8 °F 20.8 °F 26.6 °F 75% 29.74 in 10.0 mi WNW 26.5 mph 33.4 mph N/A   Overcast
10:53 AM 36.0 °F 22.8 °F 25.0 °F 64% 29.82 in 10.0 mi WNW 31.1 mph 39.1 mph N/A   Mostly Cloudy
11:53 AM 34.0 °F 22.4 °F 24.1 °F 67% 29.83 in 10.0 mi NW 20.7 mph 34.5 mph N/A   Overcast
12:53 PM 34.0 °F 21.8 °F 24.1 °F 67% 29.82 in 10.0 mi NW 23.0 mph 41.4 mph N/A   Overcast
1:53 PM 34.0 °F 22.1 °F 24.1 °F 67% 29.83 in 10.0 mi NW 21.9 mph 27.6 mph N/A   Overcast
2:53 PM 35.1 °F 23.5 °F 25.0 °F 67% 29.86 in 10.0 mi NW 21.9 mph 33.4 mph N/A   Overcast
3:53 PM 34.0 °F 22.7 °F 25.0 °F 70% 29.89 in 10.0 mi WNW 19.6 mph - N/A   Overcast
4:53 PM 34.0 °F 22.7 °F 25.0 °F 70% 29.91 in 10.0 mi WNW 19.6 mph 25.3 mph N/A   Overcast
5:38 PM 33.8 °F 23.9 °F 24.8 °F 70% 29.90 in 10.0 mi NW 15.0 mph 20.7 mph N/A   Overcast
5:53 PM 34.0 °F 25.0 °F 25.0 °F 70% 29.95 in 10.0 mi NW 12.7 mph - N/A   Overcast
6:53 PM 34.0 °F 24.2 °F 26.1 °F 73% 29.97 in 10.0 mi WNW 15.0 mph - N/A   Overcast
7:53 PM 34.0 °F 22.1 °F 26.1 °F 73% 29.98 in 10.0 mi WNW 21.9 mph - N/A   Overcast
8:53 PM 34.0 °F 23.4 °F 25.0 °F 70% 30.01 in 10.0 mi NW 17.3 mph - N/A   Overcast
9:22 PM 33.8 °F 21.9 °F 24.8 °F 70% 29.95 in 10.0 mi NW 21.9 mph - N/A   Mostly Cloudy
9:53 PM 33.1 °F 23.4 °F 25.0 °F 72% 30.01 in 10.0 mi NW 13.8 mph 28.8 mph N/A   Mostly Cloudy
10:16 PM 33.8 °F 25.3 °F 24.8 °F 70% 29.99 in 10.0 mi NW 11.5 mph - N/A   Overcast
10:53 PM 33.1 °F 23.0 °F 25.0 °F 72% 30.04 in 10.0 mi NW 15.0 mph - N/A   Overcast
11:53 PM 33.1 °F 21.9 °F 26.1 °F 75% 30.04 in 10.0 mi WNW 18.4 mph - N/A   Overcast